Regional Weather Roundup
Issued by NWS Green Bay, WI

Home | Current Version | Previous Version | Text Only | Print | Product List | Glossary On
Versions: 1 2 3 4 5 6 7 8 9 10 11 12 13 14 15 16 17 18 19 20 21 22 23 24 25 26 27 28 29 30 31 32 33 34 35 36 37 38 39 40 41 42 43 44 45 46 47 48 49 50
000
ASUS43 KGRB 260501
RWRGRB

NORTH-CENTRAL AND NORTHEAST WISCONSIN REGIONAL WEATHER ROUNDUP
NATIONAL WEATHER SERVICE GREEN BAY WI
1200 AM CDT TUE SEP 26 2017

WIZ005-009-010>012-018-019-260600-
NORTH CENTRAL WISCONSIN

CITY           SKY/WX    TMP DP  RH WIND       PRES   REMARKS
IRONWOOD       CLOUDY    57  56  96 E7        29.99S
MANITOWISH WTR NOT AVBL
ARBOR VITAE    NOT AVBL
EAGLE RIVER    NOT AVBL
LAND O LAKES   NOT AVBL
RHINELANDER    CLOUDY    63  63 100 NE6       29.97F
PHILLIPS       CLOUDY    58  58 100 NE3       29.97S FOG
ANTIGO         NOT AVBL
TOMAHAWK       NOT AVBL
MERRILL        NOT AVBL
$$

WIZ013-073-260600-
NORTHEAST WISCONSIN

CITY           SKY/WX    TMP DP  RH WIND       PRES   REMARKS
IRON MOUNTAIN  LGT RAIN  66  62  87 E5        29.95F FOG
MARINETTE      CLEAR     70  63  78 CALM      29.94R
$$

WIZ017-030-035>037-045-260600-
CENTRAL WISCONSIN

CITY           SKY/WX    TMP DP  RH WIND       PRES   REMARKS
MEDFORD        NOT AVBL
WAUSAU         CLOUDY    66  64  93 S3        29.94R
MOSINEE        NOT AVBL
MARSHFIELD     MOCLDY    63  60  90 SW5       29.95S
WISC RAPIDS    LGT RAIN  67  65  93 S3        29.97R
STEVENS POINT  NOT AVBL
WAUPACA        NOT AVBL
SHAWANO        NOT AVBL
CLINTONVILLE   NOT AVBL
WAUTOMA        PTCLDY    66  64  93 W6        29.97R
$$

WIZ038-039-048-051-260600-
FOX VALLEY

CITY           SKY/WX    TMP DP  RH WIND       PRES   REMARKS
NWS GREEN BAY  CLEAR     64  64 100 S5        29.94R
APPLETON       NOT AVBL
OSHKOSH        CLEAR     66  61  84 CALM      29.93S
FOND DU LAC    PTCLDY    68  59  73 W3        29.94R
$$

WIZ022-050-052-260600-
EAST CENTRAL WISCONSIN

CITY           SKY/WX    TMP DP  RH WIND       PRES   REMARKS
EPHRAIM        NOT AVBL
WASHINGTON ISL NOT AVBL
STURGEON BAY   CLEAR     69  60  73 CALM      29.94R
MANITOWOC      MOCLDY    67  60  78 CALM      29.94R
SHEBOYGAN      PTCLDY    65  62  90 W5        29.94R
$$

LMZ563-521-522-541>543-260600-
LAKESHORE

STATION/POSITION TIME  TEMP    WIND        PRES    VSBY  WAVE
                       AIR SEA DIR/SP/G                  HT/PER
                 (UTC) (F)     (DEG/KT/KT) (MB)    (MI)  (FT/S)
SHEBOYGAN LKSHOR 0400   72     190/  6/  6 1013.0F
KEWAUNEE LKSHORE 0430   64     300/  2/  4 1012.8R
NORTHPORT PIER   0440   72     280/  3/  6 1013.2S
N MID LAKE BUOY  0350   69 67  160/  8/ 10 1014.2F         1
SISTER BAY LKSHO 0419   73     170/  7/  8   N/A
MENOMINEE LKSHOR 0430   73     240/  7/ 11 1013.3R
$$




USA.gov is the U.S. government's official web portal to all federal, state and local government web resources and services.